Powrót do katalogu

DELTA 1 DEB

AktywnySSO
NORAD 18463·DEBRIS·🇺🇸 United States

Wystrzelony Jul 29, 1976 z Vandenberg Space Force Base

Loading…

Następne Przeloty (najbliższe 24 godziny)

TLE

ŚwieżeSource: Space-Track

Epoka: Sep 14, 2026, 21:27 UTC

1 18463U 76077FA  26257.89398312 -.00000017  00000-0  26064-3 0  9994
2 18463 102.6000 233.3046 0094158 110.5987 277.9947 12.23623275239374

Śledź DELTA 1 DEB w czasie rzeczywistym z AllMySat

Download on the App Store